Theta_e
334 333 333 333 332 328 327 329 336 340 339 338 335 335 335 330 329 334 330 334 334 328
331 332 331 335 337 330 335 330 333 336 336 336 334 333 336 329 332 332 333 334 332 329
325 325 328 329 329 331 333 334 334 333 333 334 333 333 336 332 333 332 328 325 332 330
320 320 321 322 324 326 329 329 329 329 329 330 331 332 335 334 330 328 331 331 326 328
318 319 319 320 321 321 321 322 323 324 324 325 326 329 329 327 327 327 327 326 326 324
316 316 317 317 318 319 319 318 318 318 318 319 320 322 324 326 326 327 328 327 327 325
314 315 315 315 316 316 315 314 314 315 315 314 315 316 317 319 322 325 326 328 328 325
313 313 313 313 313 313 313 313 313 312 313 313 313 312 316 316 319 321 322 326 325 326
310 310 310 311 311 311 311 311 312 312 312 312 312 306 304 307 312 314 315 319 321 323
308 307 308 308 308 309 310 311 311 311 310 310 311 303 301 302 309 311 313 315 316 317
306 305 306 307 307 308 307 305 305 305 305 305 306 300 298 299 305 306 307 308 310 311
305 304 305 305 303 303 302 299 296 297 299 299 299 297 297 297 299 299 301 304 304 304
304 302 300 300 299 295 295 294 295 296 296 297 297 296 295 296 298 296 297 299 305 302
300 298 298 293 293 294 294 293 294 294 296 297 296 296 294 294 296 296 297 298 302 304
Wind_Speed
3 2 1 3 2 4 5 5 6 9 10 11 10 10 9 8 8 8 8 10 10 10
6 6 6 4 4 6 7 8 8 10 12 12 13 13 11 10 9 10 9 9 10 10
6 6 6 5 7 8 9 10 10 11 12 12 13 14 13 12 12 12 11 10 10 11
6 6 5 6 7 7 8 10 12 13 14 15 15 16 14 15 16 16 14 14 14 14
8 8 8 8 9 9 10 11 12 13 14 16 17 17 19 19 18 19 19 18 18 18
9 10 11 11 12 13 14 14 15 16 17 17 18 18 19 20 21 21 21 20 19 18
12 12 13 13 14 15 15 16 17 18 19 20 20 21 21 21 20 20 21 20 20 20
14 14 15 15 16 16 16 17 18 19 19 20 19 17 20 20 20 20 20 20 21 21
15 16 16 17 17 17 18 18 18 19 19 20 16 18 10 12 19 21 21 19 20 21
17 17 18 17 18 18 18 17 18 19 19 20 19 16 13 16 20 21 20 20 19 19
17 18 18 19 19 18 15 16 18 18 20 19 16 17 14 12 14 15 16 17 19 19
18 19 19 18 18 17 16 15 16 16 15 14 15 20 20 14 15 17 17 16 18 19
18 18 18 19 18 17 14 14 13 14 16 21 18 18 16 13 11 13 12 15 19 21
18 18 17 17 14 14 14 16 16 18 18 19 18 18 21 23 14 11 10 11 11 10
Wind_Direction
66 86 56 209 328 229 241 231 232 215 227 229 228 226 229 236 238 250 247 256 264 279
12 351 346 313 265 250 257 266 244 238 236 236 237 234 231 240 248 243 243 251 254 260
15 6 339 313 295 294 285 273 268 254 247 249 251 251 245 248 239 241 249 244 247 251
344 333 318 309 301 295 285 273 268 263 257 252 250 249 248 251 259 260 235 244 249 248
321 318 304 297 294 289 279 275 269 267 263 261 257 254 252 251 252 250 246 244 243 247
306 299 294 289 284 279 275 270 268 265 262 260 259 258 253 251 249 249 248 251 248 245
295 292 289 286 281 278 276 274 271 268 268 266 264 261 258 256 256 254 251 249 247 246
293 289 286 284 283 282 280 277 278 277 273 272 270 265 262 261 259 258 259 256 248 244
293 290 287 286 284 281 278 277 277 275 274 274 271 275 279 283 275 270 266 261 253 251
296 293 290 290 288 284 283 283 281 282 283 281 282 287 284 279 277 269 266 267 265 264
297 296 295 292 289 291 294 287 284 281 278 278 271 276 271 257 273 268 268 274 273 272
304 300 297 296 300 296 289 298 289 277 276 282 279 285 275 290 289 274 269 267 260 257
302 300 298 292 300 292 277 280 276 272 273 267 269 268 255 258 263 272 270 266 265 246
303 297 303 292 284 280 278 277 275 276 276 278 276 271 261 249 250 250 261 260 256 247